Terminal Aerodrome Forecast
Issued by NWS

Home | Current Version | Previous Version | Text Only | Print | Product List | Glossary On
Versions: 1 2 3 4 5 6 7 8 9 10 11 12 13 14 15 16 17 18 19 20 21 22 23 24 25 26 27 28
000
FTUS44 KOHX 291100 AAA
TAFCKV
TAF AMD
KCKV 291155Z 2912/3012 15003KT 2SM BR SKC
      TEMPO 2912/2914 1/2SM FG VV001
     FM291400 17004KT P6SM SKC
     FM291700 20005KT P6SM SCT040 BKN250
     FM300200 17004KT P6SM BKN250
     FM300700 17003KT 4SM BR BKN120 BKN250=

USA.gov is the U.S. government's official web portal to all federal, state and local government web resources and services.